CSH4590 ZSLO-ZYSD

Flight info

Callsign CSH4590
Flight time N/A
Altitude 33100
Route LEKUV A599 JTN W116 PK G455 HSH V2 ODULO B221 XDX W174 FD W172 TEKAM V68 DOBGA W202 UDETI A588 LEMOT W657 APESI G341 UPNUX UGABI W39 MDJ
Aircraft B738/M-SDE2E3FGHIM3RWY/EB1

Departure

Time N/A
Airport Liancheng Guanzhishan Airport (ZSLO)

Arrival

Time 2026-05-05 12:58
Airport Suifenhe Dongning Airport (ZYSD)
Time Latitude Longitude Altitude Speed Heading
2026-05-05 12:17 43.14101 125.52634 32826 ft 469 kts 21°
2026-05-05 12:17 43.17009 125.54682 32828 ft 469 kts 21°
2026-05-05 12:17 43.22817 125.58786 32825 ft 470 kts 21°
2026-05-05 12:18 43.28600 125.62879 32826 ft 469 kts 21°
2026-05-05 12:18 43.34402 125.66992 32824 ft 469 kts 21°
2026-05-05 12:19 43.40169 125.71087 32813 ft 469 kts 21°
2026-05-05 12:19 43.45966 125.75213 32811 ft 469 kts 21°
2026-05-05 12:20 43.51765 125.79350 32815 ft 469 kts 21°
2026-05-05 12:20 43.57517 125.83462 32809 ft 469 kts 21°
2026-05-05 12:21 43.63304 125.87609 32805 ft 469 kts 21°
2026-05-05 12:21 43.69094 125.91766 32806 ft 469 kts 21°
2026-05-05 12:22 43.74331 125.97125 32813 ft 489 kts 50°
2026-05-05 12:22 43.75883 126.01341 32804 ft 499 kts 71°
2026-05-05 12:22 43.76374 126.06090 32811 ft 501 kts 92°
2026-05-05 12:23 43.75865 126.10852 32829 ft 500 kts 104°
2026-05-05 12:23 43.75011 126.15524 32804 ft 501 kts 107°
2026-05-05 12:23 43.73393 126.24858 32799 ft 504 kts 103°
2026-05-05 12:24 43.72196 126.34450 32815 ft 507 kts 99°
2026-05-05 12:24 43.71225 126.44113 32814 ft 508 kts 98°
2026-05-05 12:25 43.70276 126.53744 32816 ft 509 kts 99°
2026-05-05 12:25 43.69286 126.63434 32822 ft 510 kts 99°
2026-05-05 12:26 43.68271 126.73125 32826 ft 510 kts 99°
2026-05-05 12:26 43.67246 126.82819 32824 ft 509 kts 99°
2026-05-05 12:27 43.66223 126.92424 32828 ft 508 kts 99°
2026-05-05 12:27 43.65188 127.02070 32832 ft 507 kts 99°
2026-05-05 12:28 43.64147 127.11704 32842 ft 507 kts 99°
2026-05-05 12:28 43.63102 127.21298 32844 ft 505 kts 99°
2026-05-05 12:29 43.62047 127.30819 32853 ft 505 kts 100°
2026-05-05 12:29 43.60864 127.40365 32851 ft 505 kts 101°
2026-05-05 12:30 43.59643 127.49914 32843 ft 505 kts 101°
2026-05-05 12:30 43.58442 127.59410 32857 ft 504 kts 101°
2026-05-05 12:31 43.57253 127.68808 32863 ft 504 kts 101°
2026-05-05 12:31 43.56886 127.73384 32839 ft 504 kts 88°
2026-05-05 12:31 43.57426 127.78124 32882 ft 500 kts 70°
2026-05-05 12:32 43.58755 127.82466 32864 ft 495 kts 56°
2026-05-05 12:32 43.60783 127.86227 32863 ft 486 kts 41°
2026-05-05 12:32 43.65652 127.92631 32862 ft 483 kts 37°
2026-05-05 12:33 43.70602 127.98934 32854 ft 485 kts 38°
2026-05-05 12:33 43.75508 128.05328 32844 ft 482 kts 38°
2026-05-05 12:34 43.80296 128.11674 32857 ft 480 kts 38°
2026-05-05 12:34 43.85122 128.18095 32861 ft 481 kts 38°
2026-05-05 12:35 43.89949 128.24526 32865 ft 482 kts 38°
2026-05-05 12:35 43.92371 128.27756 32532 ft 486 kts 38°
2026-05-05 12:35 43.94781 128.30974 31913 ft 485 kts 39°
2026-05-05 12:36 43.97204 128.34217 31262 ft 484 kts 39°
2026-05-05 12:36 43.99619 128.37453 30802 ft 480 kts 39°
2026-05-05 12:36 44.02011 128.40663 30299 ft 476 kts 39°
2026-05-05 12:36 44.04387 128.43852 29822 ft 472 kts 39°
2026-05-05 12:37 44.06734 128.47006 29259 ft 468 kts 39°
2026-05-05 12:37 44.09064 128.50141 28768 ft 463 kts 39°
2026-05-05 12:37 44.11323 128.53229 28255 ft 460 kts 43°
2026-05-05 12:37 44.13344 128.56675 27820 ft 459 kts 52°
2026-05-05 12:38 44.14957 128.60479 27521 ft 453 kts 58°
2026-05-05 12:38 44.16441 128.64338 27034 ft 450 kts 59°
2026-05-05 12:38 44.17892 128.68184 26556 ft 447 kts 59°
2026-05-05 12:38 44.19337 128.72015 26084 ft 445 kts 59°
2026-05-05 12:39 44.20781 128.75812 25612 ft 442 kts 59°
2026-05-05 12:39 44.22209 128.79543 25144 ft 440 kts 59°
2026-05-05 12:39 44.23652 128.83293 24676 ft 438 kts 59°
2026-05-05 12:39 44.25097 128.87039 24177 ft 437 kts 59°
2026-05-05 12:40 44.26538 128.90776 23693 ft 436 kts 59°
2026-05-05 12:40 44.27973 128.94500 23189 ft 436 kts 59°
2026-05-05 12:40 44.29405 128.98221 22647 ft 434 kts 59°
2026-05-05 12:40 44.30809 129.01877 22152 ft 431 kts 58°
2026-05-05 12:41 44.32221 129.05560 21671 ft 429 kts 58°
2026-05-05 12:41 44.33625 129.09227 21195 ft 427 kts 58°
2026-05-05 12:41 44.35020 129.12876 20714 ft 424 kts 58°
2026-05-05 12:41 44.36411 129.16516 20254 ft 423 kts 58°
2026-05-05 12:42 44.37772 129.20085 19788 ft 421 kts 58°
2026-05-05 12:42 44.39150 129.23701 19294 ft 420 kts 58°
2026-05-05 12:42 44.40522 129.27304 18818 ft 420 kts 58°
2026-05-05 12:42 44.41890 129.30904 18337 ft 419 kts 58°
2026-05-05 12:43 44.43255 129.34501 17822 ft 418 kts 58°
2026-05-05 12:43 44.44618 129.38098 17314 ft 417 kts 58°
2026-05-05 12:43 44.45970 129.41671 16825 ft 414 kts 58°
2026-05-05 12:43 44.47295 129.45175 16355 ft 412 kts 58°
2026-05-05 12:44 44.48633 129.48717 15883 ft 409 kts 58°
2026-05-05 12:44 44.49941 129.52252 15399 ft 409 kts 62°
2026-05-05 12:44 44.50864 129.56031 14945 ft 411 kts 75°
2026-05-05 12:44 44.51288 129.59952 14374 ft 414 kts 86°
2026-05-05 12:45 44.51206 129.63983 13869 ft 414 kts 95°
2026-05-05 12:45 44.50970 129.68001 13358 ft 413 kts 96°
2026-05-05 12:45 44.50711 129.72001 12865 ft 410 kts 96°
2026-05-05 12:45 44.50456 129.75971 12378 ft 407 kts 96°
2026-05-05 12:46 44.50216 129.79851 11936 ft 404 kts 96°
2026-05-05 12:46 44.49983 129.83763 11485 ft 401 kts 96°
2026-05-05 12:46 44.49761 129.87608 11028 ft 390 kts 96°
2026-05-05 12:46 44.49549 129.91309 10751 ft 373 kts 96°
2026-05-05 12:47 44.49346 129.94867 10411 ft 361 kts 96°
2026-05-05 12:47 44.49148 129.98325 10284 ft 351 kts 96°
2026-05-05 12:47 44.48952 130.01697 10134 ft 343 kts 96°
2026-05-05 12:47 44.48761 130.04988 9982 ft 335 kts 96°
2026-05-05 12:48 44.48573 130.08198 9664 ft 334 kts 96°
2026-05-05 12:48 44.48382 130.11436 9342 ft 333 kts 96°
2026-05-05 12:48 44.48191 130.14656 8997 ft 332 kts 96°
2026-05-05 12:48 44.48000 130.17877 8664 ft 330 kts 96°
2026-05-05 12:49 44.47810 130.21070 8341 ft 328 kts 96°
2026-05-05 12:49 44.47620 130.24251 8033 ft 327 kts 96°
2026-05-05 12:49 44.47434 130.27339 7706 ft 319 kts 96°
2026-05-05 12:49 44.47251 130.30389 7403 ft 309 kts 97°
2026-05-05 12:50 44.47104 130.33324 7249 ft 295 kts 91°
2026-05-05 12:50 44.47234 130.36115 7150 ft 279 kts 84°
2026-05-05 12:50 44.47454 130.38746 7041 ft 266 kts 84°
2026-05-05 12:50 44.47654 130.41244 6955 ft 250 kts 85°
2026-05-05 12:51 44.47826 130.43591 6843 ft 244 kts 85°
2026-05-05 12:51 44.47987 130.45935 6756 ft 239 kts 85°
2026-05-05 12:51 44.48139 130.48190 6672 ft 227 kts 85°
2026-05-05 12:51 44.48344 130.50339 6453 ft 221 kts 70°
2026-05-05 12:52 44.48836 130.51556 6299 ft 213 kts 43°
2026-05-05 12:52 44.50354 130.53168 6068 ft 200 kts 26°
2026-05-05 12:52 44.51141 130.53829 5936 ft 198 kts 25°
2026-05-05 12:52 44.52704 130.55135 5712 ft 199 kts 26°
2026-05-05 12:53 44.53903 130.56147 5519 ft 203 kts 26°
2026-05-05 12:53 44.55106 130.57179 5308 ft 202 kts 31°
2026-05-05 12:53 44.55940 130.58739 5065 ft 204 kts 75°
2026-05-05 12:53 44.55847 130.60647 4895 ft 195 kts 115°
2026-05-05 12:54 44.54501 130.63867 4549 ft 193 kts 123°
2026-05-05 12:54 44.53799 130.65435 4348 ft 184 kts 123°
2026-05-05 12:54 44.53132 130.66934 4179 ft 183 kts 123°
2026-05-05 12:55 44.52463 130.68430 3939 ft 180 kts 122°
2026-05-05 12:55 44.51823 130.69869 3651 ft 168 kts 121°
2026-05-05 12:55 44.51213 130.71240 3408 ft 163 kts 120°
2026-05-05 12:55 44.50622 130.72573 3205 ft 160 kts 119°
2026-05-05 12:56 44.50039 130.73891 2989 ft 163 kts 118°
2026-05-05 12:56 44.49434 130.75237 2797 ft 164 kts 120°
2026-05-05 12:56 44.48834 130.76570 2532 ft 159 kts 119°
2026-05-05 12:56 44.48455 130.77436 2377 ft 157 kts 119°
2026-05-05 12:57 44.47893 130.78730 2148 ft 155 kts 120°
2026-05-05 12:57 44.47159 130.80434 1864 ft 153 kts 121°
2026-05-05 12:57 44.46782 130.81291 1706 ft 153 kts 120°
2026-05-05 12:57 44.46032 130.82947 1457 ft 152 kts 120°
2026-05-05 12:58 44.45498 130.84155 1385 ft 128 kts 122°
2026-05-05 12:58 44.45237 130.84743 1375 ft 87 kts 122°
2026-05-05 12:58 44.45031 130.85205 1368 ft 33 kts 122°
2026-05-05 12:58 44.44930 130.85435 1367 ft 26 kts 122°
2026-05-05 12:59 44.44875 130.85580 1365 ft 13 kts 94°
2026-05-05 12:59 44.44869 130.85664 1362 ft 7 kts 118°
2026-05-05 12:59 44.44855 130.85691 1361 ft 3 kts 135°
2026-05-05 13:00 44.44837 130.85646 1363 ft 4 kts 286°
2026-05-05 13:00 44.44849 130.85615 1363 ft 4 kts 301°
2026-05-05 13:01 44.44969 130.85343 1366 ft 18 kts 302°
2026-05-05 13:01 44.45033 130.85201 1368 ft 17 kts 302°
2026-05-05 13:01 44.45093 130.85063 1369 ft 16 kts 301°
2026-05-05 13:01 44.45152 130.84931 1372 ft 16 kts 302°
2026-05-05 13:02 44.45209 130.84804 1375 ft 15 kts 302°
2026-05-05 13:02 44.45262 130.84683 1378 ft 14 kts 302°
2026-05-05 13:02 44.45313 130.84568 1381 ft 14 kts 302°
2026-05-05 13:02 44.45363 130.84456 1383 ft 13 kts 302°
2026-05-05 13:03 44.45407 130.84387 1383 ft 9 kts 341°
2026-05-05 13:03 44.45463 130.84414 1382 ft 9 kts 34°
2026-05-05 13:03 44.45520 130.84464 1381 ft 10 kts 31°
2026-05-05 13:03 44.45596 130.84512 1381 ft 9 kts 343°
2026-05-05 13:04 44.45626 130.84472 1383 ft 9 kts 306°
2026-05-05 13:04 44.45659 130.84397 1385 ft 9 kts 301°
2026-05-05 13:04 44.45680 130.84348 1382 ft 5 kts 301°
2026-05-05 13:04 44.45720 130.84333 1386 ft 5 kts 18°
2026-05-05 13:05 44.45738 130.84347 1381 ft 2 kts 33°
2026-05-05 13:05 44.45743 130.84352 1381 ft 0 kts 33°
2026-05-05 13:05 44.45661 130.84555 1380 ft 0 kts 32°
2026-05-05 13:06 44.45682 130.84503 1383 ft 0 kts 32°
2026-05-05 13:06 44.45706 130.84456 1382 ft 0 kts 32°
2026-05-05 13:06 44.45727 130.84406 1382 ft 0 kts 31°
2026-05-05 13:07 44.45766 130.84306 1382 ft 0 kts 32°
2026-05-05 13:07 44.45769 130.84309 1382 ft 0 kts 32°
2026-05-05 13:07 44.45664 130.84558 1378 ft 0 kts 32°
2026-05-05 13:07 44.45661 130.84556 1384 ft 0 kts 32°
2026-05-05 13:09 44.45682 130.84503 1381 ft 0 kts 31°
2026-05-05 13:09 44.45703 130.84454 1379 ft 0 kts 32°
2026-05-05 13:10 44.45724 130.84404 1382 ft 0 kts 31°
2026-05-05 13:10 44.45727 130.84406 1382 ft 0 kts 31°
2026-05-05 13:11 44.45728 130.84407 1382 ft 0 kts 31°
2026-05-05 13:11 44.45724 130.84404 1382 ft 0 kts 31°
2026-05-05 13:12 44.45749 130.84357 1381 ft 0 kts 31°
2026-05-05 13:12 44.45746 130.84355 1382 ft 0 kts 31°
2026-05-05 13:13 44.45769 130.84309 1382 ft 0 kts 32°
2026-05-05 13:13 44.45770 130.84310 1382 ft 0 kts 32°
2026-05-05 13:13 44.45766 130.84307 1383 ft 0 kts 32°
2026-05-05 13:15 44.45661 130.84556 1384 ft 0 kts 32°
2026-05-05 13:15 44.45682 130.84503 1381 ft 0 kts 31°
2026-05-05 13:17 44.45703 130.84454 1379 ft 0 kts 32°
2026-05-05 13:17 44.45724 130.84404 1382 ft 0 kts 31°
2026-05-05 13:17 44.45746 130.84355 1382 ft 0 kts 31°
2026-05-05 13:18 44.45766 130.84307 1383 ft 0 kts 32°
2026-05-05 13:18 44.45724 130.84404 1382 ft 0 kts 31°
2026-05-05 13:32 44.45711 130.84392 1379 ft 4 kts 31°
2026-05-05 13:32 44.45692 130.84375 1382 ft 4 kts 49°
2026-05-05 13:32 44.45685 130.84346 1383 ft 4 kts 104°
2026-05-05 13:33 44.45695 130.84312 1384 ft 4 kts 121°
2026-05-05 13:33 44.45699 130.84305 1386 ft 0 kts 121°
2026-05-05 13:34 44.45687 130.84332 1382 ft 5 kts 120°
2026-05-05 13:34 44.45693 130.84372 1385 ft 5 kts 49°
2026-05-05 13:35 44.45711 130.84392 1379 ft 3 kts 34°
2026-05-05 13:35 44.45721 130.84400 1381 ft 2 kts 32°
2026-05-05 13:35 44.45725 130.84404 1385 ft 0 kts 32°